VK6JI-11 Weather Reports


Display with metric or nautical units.
time (UTC)temp
F
wind
direction
speed
MPH
gust
MPH
rain 1hr
in
rain 24hr
in
rain mn
in
humidity
%
barometer
mb
20260510012135 65 3 4.0 9.0 0.00 0.00 0.00 57 1025.8
20260510011935 65 62 3.0 9.0 0.00 0.00 0.00 57 1025.8
20260510011735 64 21 4.0 10.0 0.00 0.00 0.00 58 1025.8
20260510011535 64 34 3.0 10.0 0.00 0.00 0.00 58 1025.8
20260510011335 64 111 3.0 10.0 0.00 0.00 0.00 59 1025.8
20260510011135 64 70 3.0 10.0 0.00 0.00 0.00 59 1025.8
20260510010935 63 22 4.0 10.0 0.00 0.00 0.00 60 1025.9
20260510010735 63 15 3.0 9.0 0.00 0.00 0.00 60 1025.8
20260510010535 63 55 3.0 9.0 0.00 0.00 0.00 60 1025.9
20260510010334 62 18 4.0 9.0 0.00 0.00 0.00 61 1025.9
20260510010135 62 61 2.0 7.0 0.00 0.00 0.00 62 1025.9
20260510005934 61 80 4.0 7.0 0.00 0.00 0.00 62 1025.9
20260510005734 61 351 3.0 7.0 0.00 0.00 0.00 63 1025.9
20260510005534 61 8 4.0 7.0 0.00 0.00 0.00 63 1025.9
20260510005335 61 56 2.0 5.0 0.00 0.00 0.00 63 1025.8
20260510005135 60 61 2.0 10.0 0.00 0.00 0.00 64 1025.8
20260510004934 60 61 2.0 10.0 0.00 0.00 0.00 64 1025.8
20260510004733 60 61 2.0 10.0 0.00 0.00 0.00 64 1025.8
20260510004533 60 42 2.0 10.0 0.00 0.00 0.00 65 1025.7
20260510004333 59 42 3.0 10.0 0.00 0.00 0.00 65 1025.8
20260510004134 59 350 3.0 7.0 0.00 0.00 0.00 66 1025.7
20260510003933 59 75 4.0 7.0 0.00 0.00 0.00 66 1025.7
20260510003732 59 18 3.0 7.0 0.00 0.00 0.00 66 1025.7
20260510003533 58 70 2.0 6.0 0.00 0.00 0.00 67 1025.6
20260510003333 58 73 3.0 6.0 0.00 0.00 0.00 66 1025.5
20260510003134 58 46 2.0 6.0 0.00 0.00 0.00 67 1025.5
20260510002935 58 32 2.0 6.0 0.00 0.00 0.00 67 1025.5
20260510002733 58 37 3.0 6.0 0.00 0.00 0.00 67 1025.4
20260510002533 57 65 2.0 6.0 0.00 0.00 0.00 68 1025.4
20260510002333 57 68 3.0 6.0 0.00 0.00 0.00 68 1025.4
20260510002133 57 59 2.0 6.0 0.00 0.00 0.00 68 1025.3
20260510001931 57 51 3.0 6.0 0.00 0.00 0.00 68 1025.3
20260510001731 57 65 3.0 5.0 0.00 0.00 0.00 68 1025.4
20260510001531 57 53 2.0 5.0 0.00 0.00 0.00 69 1025.3
20260510001331 56 18 2.0 5.0 0.00 0.00 0.00 69 1025.3
20260510001131 56 62 2.0 4.0 0.00 0.00 0.00 70 1025.3
20260510000931 56 56 2.0 4.0 0.00 0.00 0.00 70 1025.3
20260510000731 56 72 2.0 4.0 0.00 0.00 0.00 70 1025.4
20260510000533 56 73 2.0 4.0 0.00 0.00 0.00 70 1025.3
20260510000333 55 72 2.0 4.0 0.00 0.00 0.00 70 1025.3
20260510000131 55 75 2.0 6.0 0.00 0.00 0.00 71 1025.3
20260509235931 55 82 2.0 6.0 0.00 0.00 0.00 71 1025.3
20260509235731 55 87 2.0 6.0 0.00 0.00 0.00 71 1025.3
20260509235532 55 90 2.0 6.0 0.00 0.00 0.00 72 1025.3
20260509235331 54 28 3.0 6.0 0.00 0.00 0.00 72 1025.4
20260509235131 54 51 2.0 4.0 0.00 0.00 0.00 72 1025.5
20260509234931 54 55 2.0 4.0 0.00 0.00 0.00 72 1025.5
20260509234732 54 56 1.0 4.0 0.00 0.00 0.00 72 1025.5
20260509234531 54 56 0.0 4.0 0.00 0.00 0.00 72 1025.6
20260509234331 54 56 2.0 4.0 0.00 0.00 0.00 72 1025.5
20260509234131 54 56 1.0 2.0 0.00 0.00 0.00 71 1025.7
20260509233931 54 56 1.0 2.0 0.00 0.00 0.00 71 1025.6
20260509233732 54 56 1.0 2.0 0.00 0.00 0.00 72 1025.6
20260509233531 54 56 0.0 2.0 0.00 0.00 0.00 71 1025.7
20260509233331 54 56 0.0 2.0 0.00 0.00 0.00 71 1025.6
20260509233130 54 56 0.0 2.0 0.00 0.00 0.00 71 1025.6
20260509232931 54 56 0.0 2.0 0.00 0.00 0.00 71 1025.7
20260509232731 54 58 0.0 2.0 0.00 0.00 0.00 71 1025.6
20260509232531 54 58 0.0 3.0 0.00 0.00 0.00 70 1025.6
20260509232332 54 58 0.0 3.0 0.00 0.00 0.00 70 1025.5
20260509232131 54 59 0.0 3.0 0.00 0.00 0.00 70 1025.6
20260509231931 54 59 0.0 3.0 0.00 0.00 0.00 70 1025.5
20260509231732 54 59 2.0 3.0 0.00 0.00 0.00 70 1025.6
20260509231531 54 63 1.0 3.0 0.00 0.00 0.00 70 1025.5
20260509231331 54 65 1.0 3.0 0.00 0.00 0.00 70 1025.5
20260509231131 54 65 1.0 3.0 0.00 0.00 0.00 70 1025.4
20260509230932 54 65 1.0 3.0 0.00 0.00 0.00 70 1025.3
20260509230731 54 65 1.0 5.0 0.00 0.00 0.00 70 1025.2
20260509230533 54 65 2.0 5.0 0.00 0.00 0.00 70 1025.2
20260509230332 54 96 2.0 5.0 0.00 0.00 0.00 70 1025.2
20260509230131 54 96 2.0 5.0 0.00 0.00 0.00 71 1025.1
20260509225931 54 96 2.0 5.0 0.00 0.00 0.00 71 1025.2
20260509225731 54 104 1.0 4.0 0.00 0.00 0.00 70 1025.2
20260509225530 54 104 2.0 4.0 0.00 0.00 0.00 70 1025.2
20260509225331 54 49 1.0 4.0 0.00 0.00 0.00 70 1025.2
20260509225131 54 32 0.0 4.0 0.00 0.00 0.00 70 1025.2
20260509224931 54 32 1.0 4.0 0.00 0.00 0.00 70 1025.2
20260509224731 54 32 2.0 4.0 0.00 0.00 0.00 70 1025.1
20260509224531 54 22 1.0 2.0 0.00 0.00 0.00 70 1025.2
20260509224332 54 22 0.0 2.0 0.00 0.00 0.00 70 1025.2
20260509224132 54 27 0.0 3.0 0.00 0.00 0.00 70 1025.2
20260509223932 54 27 0.0 3.0 0.00 0.00 0.00 70 1025.3
20260509223731 54 27 0.0 3.0 0.00 0.00 0.00 70 1025.3
20260509223531 54 27 1.0 3.0 0.00 0.00 0.00 70 1025.3
20260509223331 54 25 1.0 3.0 0.00 0.00 0.00 69 1025.2
20260509223131 54 24 0.0 3.0 0.00 0.00 0.00 69 1025.2
20260509222910 54 24 1.0 3.0 0.00 0.00 0.00 69 1025.2
20260509222709 54 22 1.0 3.0 0.00 0.00 0.00 69 1025.3
20260509222509 54 59 0.0 1.0 0.00 0.00 0.00 68 1025.2
20260509222309 54 59 0.0 1.0 0.00 0.00 0.00 68 1025.2
20260509222108 54 59 0.0 3.0 0.00 0.00 0.00 68 1025.2
20260509221907 54 59 0.0 3.0 0.00 0.00 0.00 68 1025.2
20260509221709 55 59 0.0 3.0 0.00 0.00 0.00 68 1025.2
20260509221507 55 59 0.0 3.0 0.00 0.00 0.00 67 1025.1
20260509221306 55 59 2.0 3.0 0.00 0.00 0.00 67 1025.2
20260509221106 55 72 1.0 3.0 0.00 0.00 0.00 67 1025.2
20260509220906 55 68 0.0 2.0 0.00 0.00 0.00 67 1025.2
20260509220704 55 68 1.0 3.0 0.00 0.00 0.00 67 1025.1
20260509220504 55 68 0.0 3.0 0.00 0.00 0.00 67 1025.1
20260509220303 55 68 0.0 3.0 0.00 0.00 0.00 67 1025.0
20260509215902 55 68 2.0 3.0 0.00 0.00 0.00 66 1025.1
20260509215703 55 69 1.0 2.0 0.00 0.00 0.00 66 1025.0
20260509215502 55 70 1.0 4.0 0.00 0.00 0.00 66 1025.0
20260509215306 55 72 1.0 4.0 0.00 0.00 0.00 66 1025.1
20260509215105 55 72 1.0 4.0 0.00 0.00 0.00 66 1024.9
20260509214904 56 72 1.0 4.0 0.00 0.00 0.00 66 1025.0
20260509214703 56 70 2.0 4.0 0.00 0.00 0.00 66 1025.0
20260509214504 55 70 2.0 4.0 0.00 0.00 0.00 66 1024.9
20260509214304 56 86 2.0 4.0 0.00 0.00 0.00 66 1024.8
20260509214105 56 86 2.0 4.0 0.00 0.00 0.00 66 1024.8
20260509213904 56 77 2.0 4.0 0.00 0.00 0.00 66 1024.8
20260509213704 56 80 2.0 4.0 0.00 0.00 0.00 66 1024.9
20260509213504 56 80 2.0 4.0 0.00 0.00 0.00 66 1024.8
20260509213304 56 73 2.0 6.0 0.00 0.00 0.00 66 1024.8
20260509213103 56 73 2.0 6.0 0.00 0.00 0.00 66 1024.7
20260509212905 56 51 2.0 6.0 0.00 0.00 0.00 66 1024.7
20260509212704 56 49 2.0 6.0 0.00 0.00 0.00 66 1024.7
20260509212441 56 49 3.0 6.0 0.00 0.00 0.00 66 1024.7
20260509212241 55 73 2.0 5.0 0.00 0.00 0.00 66 1024.6
20260509212041 55 75 2.0 5.0 0.00 0.00 0.00 66 1024.6
20260509211840 55 73 2.0 5.0 0.00 0.00 0.00 66 1024.6
20260509211639 55 63 3.0 5.0 0.00 0.00 0.00 66 1024.6
20260509211439 55 100 3.0 5.0 0.00 0.00 0.00 66 1024.5
20260509211239 55 68 2.0 4.0 0.00 0.00 0.00 66 1024.6
20260509211038 55 68 3.0 4.0 0.00 0.00 0.00 66 1024.6
20260509210838 55 76 2.0 4.0 0.00 0.00 0.00 66 1024.6
20260509210635 55 75 2.0 4.0 0.00 0.00 0.00 66 1024.6
20260509210434 55 63 2.0 4.0 0.00 0.00 0.00 67 1024.5
20260509210234 55 62 2.0 4.0 0.00 0.00 0.00 66 1024.5
20260509210036 55 72 2.0 4.0 0.00 0.00 0.00 66 1024.5
20260509205833 55 69 2.0 4.0 0.00 0.00 0.00 67 1024.4
20260509205636 55 69 2.0 4.0 0.00 0.00 0.00 66 1024.5
20260509205432 55 75 2.0 3.0 0.00 0.00 0.00 66 1024.6
20260509205233 55 86 2.0 3.0 0.00 0.00 0.00 66 1024.6
20260509205033 55 94 2.0 3.0 0.00 0.00 0.00 66 1024.5
20260509204833 55 90 2.0 3.0 0.00 0.00 0.00 66 1024.5
20260509204637 55 69 1.0 3.0 0.00 0.00 0.00 66 1024.5
20260509204432 55 69 2.0 3.0 0.00 0.00 0.00 66 1024.5
20260509204233 55 72 1.0 3.0 0.00 0.00 0.00 66 1024.5
20260509204032 55 72 1.0 3.0 0.00 0.00 0.00 66 1024.5
20260509203834 55 72 2.0 3.0 0.00 0.00 0.00 66 1024.5
20260509203635 55 70 1.0 3.0 0.00 0.00 0.00 66 1024.4
20260509203433 55 72 2.0 3.0 0.00 0.00 0.00 66 1024.4
20260509203231 55 82 2.0 4.0 0.00 0.00 0.00 66 1024.3
20260509203032 55 82 2.0 4.0 0.00 0.00 0.00 66 1024.3
20260509202830 55 73 2.0 4.0 0.00 0.00 0.00 65 1024.3
20260509202631 55 73 2.0 4.0 0.00 0.00 0.00 65 1024.2
20260509202430 55 73 2.0 4.0 0.00 0.00 0.00 65 1024.2
20260509202231 55 72 2.0 3.0 0.00 0.00 0.00 65 1024.2
20260509202030 55 72 1.0 4.0 0.00 0.00 0.00 65 1024.2
20260509201830 55 72 2.0 4.0 0.00 0.00 0.00 65 1024.2
20260509201631 55 70 2.0 4.0 0.00 0.00 0.00 65 1024.1
20260509201430 55 70 2.0 4.0 0.00 0.00 0.00 65 1024.1
20260509201228 55 76 2.0 4.0 0.00 0.00 0.00 65 1024.0
20260509201028 55 73 2.0 4.0 0.00 0.00 0.00 65 1024.1
20260509200829 55 73 2.0 4.0 0.00 0.00 0.00 65 1024.1
20260509200628 55 75 2.0 4.0 0.00 0.00 0.00 65 1024.1
20260509200428 55 77 2.0 4.0 0.00 0.00 0.00 65 1024.1
20260509200228 55 77 2.0 4.0 0.00 0.00 0.00 65 1024.1
20260509200029 55 83 2.0 4.0 0.00 0.00 0.00 65 1024.0
20260509195828 55 100 2.0 4.0 0.00 0.00 0.00 65 1024.1
20260509195627 55 69 2.0 4.0 0.00 0.00 0.00 65 1024.1
20260509195428 55 68 2.0 4.0 0.00 0.00 0.00 65 1024.1
20260509195227 55 75 2.0 5.0 0.00 0.00 0.00 65 1024.1
20260509195028 55 76 2.0 5.0 0.00 0.00 0.00 65 1024.1
20260509194828 55 93 2.0 5.0 0.00 0.00 0.00 65 1024.1
20260509194627 55 93 2.0 5.0 0.00 0.00 0.00 65 1024.0
20260509194428 55 93 2.0 5.0 0.00 0.00 0.00 65 1024.1
20260509194227 55 66 2.0 4.0 0.00 0.00 0.00 65 1024.0
20260509194027 55 79 2.0 4.0 0.00 0.00 0.00 65 1024.0
20260509193828 55 84 2.0 4.0 0.00 0.00 0.00 65 1024.1
20260509193628 55 68 2.0 4.0 0.00 0.00 0.00 65 1024.0
20260509193428 55 73 1.0 3.0 0.00 0.00 0.00 65 1024.0
20260509193227 55 72 2.0 3.0 0.00 0.00 0.00 65 1024.1
20260509193027 55 72 2.0 3.0 0.00 0.00 0.00 65 1024.1
20260509192827 55 70 1.0 3.0 0.00 0.00 0.00 65 1024.1
20260509192628 55 70 2.0 3.0 0.00 0.00 0.00 65 1024.2
20260509192427 55 70 2.0 3.0 0.00 0.00 0.00 64 1024.2
20260509192227 55 70 0.0 4.0 0.00 0.00 0.00 64 1024.1
20260509192027 55 70 2.0 4.0 0.00 0.00 0.00 64 1024.2
20260509191828 55 69 1.0 4.0 0.00 0.00 0.00 65 1024.1
20260509191627 55 69 2.0 4.0 0.00 0.00 0.00 64 1024.1
20260509191427 55 68 2.0 4.0 0.00 0.00 0.00 65 1024.1
20260509191227 55 69 2.0 4.0 0.00 0.00 0.00 65 1024.1
20260509191026 55 69 2.0 4.0 0.00 0.00 0.00 65 1024.0
20260509190827 55 69 2.0 4.0 0.00 0.00 0.00 65 1024.0
20260509190626 55 69 2.0 6.0 0.00 0.00 0.00 65 1024.0
20260509190427 55 49 2.0 6.0 0.00 0.00 0.00 65 1024.0
20260509190227 55 49 2.0 6.0 0.00 0.00 0.00 65 1024.0
20260509190026 55 49 2.0 6.0 0.00 0.00 0.00 65 1024.0
20260509185804 55 61 2.0 4.0 0.00 0.00 0.00 65 1024.1
20260509185604 55 66 2.0 4.0 0.00 0.00 0.00 65 1024.1
20260509185405 55 66 2.0 4.0 0.00 0.00 0.00 65 1024.0
20260509185159 55 66 2.0 4.0 0.00 0.00 0.00 65 1024.1
20260509184959 55 72 2.0 3.0 0.00 0.00 0.00 64 1024.2
20260509184759 55 72 2.0 3.0 0.00 0.00 0.00 64 1024.1
20260509184558 55 72 1.0 2.0 0.00 0.00 0.00 64 1024.1
20260509184359 55 66 2.0 2.0 0.00 0.00 0.00 64 1024.1
20260509184156 55 66 2.0 2.0 0.00 0.00 0.00 64 1024.2
20260509183953 55 66 2.0 2.0 0.00 0.00 0.00 64 1024.1
20260509183753 55 66 2.0 2.0 0.00 0.00 0.00 64 1024.2
20260509183554 55 65 2.0 2.0 0.00 0.00 0.00 64 1024.2
20260509183352 55 66 1.0 3.0 0.00 0.00 0.00 64 1024.2
20260509183152 55 66 2.0 3.0 0.00 0.00 0.00 64 1024.1
20260509182952 55 66 2.0 3.0 0.00 0.00 0.00 64 1024.1
20260509182736 55 66 2.0 3.0 0.00 0.00 0.00 64 1024.2
20260509182537 55 66 2.0 3.0 0.00 0.00 0.00 64 1024.1
20260509182336 55 66 1.0 3.0 0.00 0.00 0.00 64 1024.1
20260509182136 55 66 2.0 3.0 0.00 0.00 0.00 64 1024.1
20260509181935 55 66 2.0 3.0 0.00 0.00 0.00 64 1024.0
20260509181735 55 66 2.0 3.0 0.00 0.00 0.00 64 1024.0
20260509181533 55 66 2.0 3.0 0.00 0.00 0.00 64 1024.0
20260509181332 55 66 2.0 5.0 0.00 0.00 0.00 64 1024.1
20260509181133 55 66 2.0 5.0 0.00 0.00 0.00 64 1024.0
20260509180933 55 66 2.0 5.0 0.00 0.00 0.00 64 1024.0
20260509180733 55 66 2.0 5.0 0.00 0.00 0.00 64 1024.1
20260509180536 55 66 2.0 5.0 0.00 0.00 0.00 64 1024.0
20260509180332 55 73 2.0 3.0 0.00 0.00 0.00 64 1024.0
20260509180131 55 76 2.0 3.0 0.00 0.00 0.00 64 1024.0
20260509175931 55 76 2.0 3.0 0.00 0.00 0.00 64 1024.1
20260509175732 55 76 2.0 3.0 0.00 0.00 0.00 64 1024.1
20260509175531 55 76 2.0 3.0 0.00 0.00 0.00 64 1024.1
20260509175332 55 76 2.0 3.0 0.00 0.00 0.00 64 1024.1
20260509175131 54 76 2.0 3.0 0.00 0.00 0.00 64 1024.2
20260509174931 54 76 1.0 3.0 0.00 0.00 0.00 64 1024.1
20260509174731 54 76 2.0 3.0 0.00 0.00 0.00 64 1024.2
20260509174531 54 77 1.0 2.0 0.00 0.00 0.00 64 1024.2
20260509174331 54 77 1.0 2.0 0.00 0.00 0.00 64 1024.2
20260509174131 54 77 1.0 2.0 0.00 0.00 0.00 64 1024.2
20260509173931 54 77 1.0 2.0 0.00 0.00 0.00 64 1024.2
20260509173731 54 77 1.0 2.0 0.00 0.00 0.00 64 1024.2
20260509173531 54 77 1.0 2.0 0.00 0.00 0.00 64 1024.2
20260509173331 54 77 1.0 2.0 0.00 0.00 0.00 64 1024.2
20260509173131 55 77 1.0 2.0 0.00 0.00 0.00 63 1024.3
20260509172932 55 77 0.0 1.0 0.00 0.00 0.00 63 1024.3
20260509172731 55 77 0.0 0.0 0.00 0.00 0.00 63 1024.3
20260509172531 55 77 0.0 0.0 0.00 0.00 0.00 63 1024.3
20260509172331 55 77 0.0 0.0 0.00 0.00 0.00 63 1024.2
20260509172132 55 77 0.0 0.0 0.00 0.00 0.00 63 1024.3
20260509171931 55 77 0.0 0.0 0.00 0.00 0.00 63 1024.3
20260509171731 55 77 0.0 1.0 0.00 0.00 0.00 63 1024.2
20260509171531 55 77 0.0 2.0 0.00 0.00 0.00 62 1024.2
20260509171331 55 77 0.0 2.0 0.00 0.00 0.00 62 1024.3
20260509171132 55 77 0.0 2.0 0.00 0.00 0.00 62 1024.2
20260509170931 55 77 0.0 2.0 0.00 0.00 0.00 62 1024.2
20260509170731 55 77 1.0 2.0 0.00 0.00 0.00 62 1024.2
20260509170532 55 77 1.0 2.0 0.00 0.00 0.00 62 1024.2
20260509170327 55 77 1.0 2.0 0.00 0.00 0.00 62 1024.2
20260509170128 55 77 1.0 2.0 0.00 0.00 0.00 61 1024.3
20260509165926 55 77 1.0 2.0 0.00 0.00 0.00 61 1024.3
20260509165727 55 77 1.0 2.0 0.00 0.00 0.00 61 1024.3
20260509165527 56 77 1.0 2.0 0.00 0.00 0.00 61 1024.3
20260509165328 56 77 0.0 2.0 0.00 0.00 0.00 61 1024.3
20260509165127 56 77 1.0 2.0 0.00 0.00 0.00 61 1024.3
20260509164927 56 77 1.0 2.0 0.00 0.00 0.00 61 1024.3
20260509164727 56 77 1.0 2.0 0.00 0.00 0.00 61 1024.3
20260509164527 56 77 1.0 2.0 0.00 0.00 0.00 61 1024.4
20260509164326 56 77 1.0 2.0 0.00 0.00 0.00 60 1024.3
20260509164126 56 77 1.0 2.0 0.00 0.00 0.00 60 1024.3
20260509163927 56 77 1.0 4.0 0.00 0.00 0.00 60 1024.4
20260509163726 56 77 1.0 4.0 0.00 0.00 0.00 60 1024.4
20260509163528 56 77 1.0 4.0 0.00 0.00 0.00 60 1024.4
20260509163326 56 69 1.0 4.0 0.00 0.00 0.00 60 1024.4
20260509163126 56 69 1.0 4.0 0.00 0.00 0.00 60 1024.4
20260509162926 56 70 1.0 2.0 0.00 0.00 0.00 60 1024.4
20260509162726 56 70 1.0 2.0 0.00 0.00 0.00 60 1024.4
20260509162528 56 70 1.0 2.0 0.00 0.00 0.00 60 1024.4
20260509162325 56 70 1.0 4.0 0.00 0.00 0.00 60 1024.4
20260509162125 56 70 0.0 4.0 0.00 0.00 0.00 59 1024.3
20260509161926 56 70 0.0 4.0 0.00 0.00 0.00 59 1024.4
20260509161726 56 70 0.0 4.0 0.00 0.00 0.00 59 1024.4
20260509161527 56 70 1.0 4.0 0.00 0.00 0.00 59 1024.4
20260509161326 56 72 1.0 3.0 0.00 0.00 0.00 60 1024.5
20260509161125 56 72 1.0 3.0 0.00 0.00 0.00 60 1024.4
20260509160926 56 72 1.0 3.0 0.00 0.00 0.00 60 1024.5
20260509160725 0 0.0 0.0 0.00 0.00 0.00 1024.4
20260509160527 0 0.0 0.0 0.00 0.00 0.00 1024.5
20260509155823 56 72 0.0 0.0 0.00 0.00 0.00 60 1024.5
20260509155623 56 72 0.0 0.0 0.00 0.00 0.00 60 1024.5
20260509155422 56 72 0.0 0.0 0.00 0.00 0.00 60 1024.5
20260509155223 56 72 0.0 0.0 0.00 0.00 0.00 59 1024.5
20260509155021 56 72 0.0 0.0 0.00 0.00 0.00 59 1024.5
20260509154821 56 72 0.0 0.0 0.00 0.00 0.00 59 1024.5
20260509154620 56 72 0.0 0.0 0.00 0.00 0.00 59 1024.6
20260509154408 56 72 0.0 0.0 0.00 0.00 0.00 59 1024.6
20260509154208 56 72 0.0 0.0 0.00 0.00 0.00 59 1024.6
20260509154008 56 72 0.0 0.0 0.00 0.00 0.00 59 1024.6
20260509153807 56 72 0.0 0.0 0.00 0.00 0.00 59 1024.6
20260509153607 56 72 0.0 0.0 0.00 0.00 0.00 59 1024.7
20260509153406 56 72 0.0 0.0 0.00 0.00 0.00 59 1024.7
20260509153206 56 72 0.0 0.0 0.00 0.00 0.00 59 1024.7
20260509153145 56 72 0.0 0.0 0.00 0.00 0.00 59 1024.7
20260509152803 56 72 0.0 0.0 0.00 0.00 0.00 59 1024.6
20260509152602 56 72 0.0 0.0 0.00 0.00 0.00 59 1024.6
20260509152402 56 72 0.0 0.0 0.00 0.00 0.00 59 1024.6
20260509152202 56 72 0.0 0.0 0.00 0.00 0.00 59 1024.7
20260509152002 56 72 0.0 0.0 0.00 0.00 0.00 59 1024.7
20260509151802 56 72 0.0 0.0 0.00 0.00 0.00 59 1024.7
20260509151602 56 72 0.0 0.0 0.00 0.00 0.00 59 1024.8
20260509151402 57 72 0.0 0.0 0.00 0.00 0.00 59 1024.8
20260509151201 57 72 0.0 0.0 0.00 0.00 0.00 59 1024.7
20260509151000 56 72 0.0 0.0 0.00 0.00 0.00 59 1024.8
20260509150755 57 72 0.0 0.0 0.00 0.00 0.00 59 1024.8
20260509150557 57 72 0.0 0.0 0.00 0.00 0.00 59 1024.8
20260509150355 57 72 0.0 1.0 0.00 0.00 0.00 59 1024.8
20260509150156 57 72 0.0 1.0 0.00 0.00 0.00 59 1024.8
20260509145955 57 72 0.0 1.0 0.00 0.00 0.00 59 1024.9
20260509145755 57 72 0.0 1.0 0.00 0.00 0.00 59 1024.9
20260509145555 57 72 0.0 1.0 0.00 0.00 0.00 59 1024.9
20260509145354 57 72 0.0 1.0 0.00 0.00 0.00 59 1024.9
20260509145156 57 72 0.0 0.0 0.00 0.00 0.00 58 1024.9
20260509144955 57 72 0.0 0.0 0.00 0.00 0.00 58 1024.9
20260509144744 57 72 0.0 0.0 0.00 0.00 0.00 58 1024.9
20260509144541 57 72 0.0 0.0 0.00 0.00 0.00 58 1025.0
20260509144341 57 72 0.0 0.0 0.00 0.00 0.00 58 1024.9
20260509144140 57 72 0.0 0.0 0.00 0.00 0.00 58 1025.0
20260509143940 57 72 0.0 0.0 0.00 0.00 0.00 58 1025.0
20260509143734 57 72 0.0 0.0 0.00 0.00 0.00 58 1025.0
20260509143534 57 72 0.0 0.0 0.00 0.00 0.00 57 1025.0
20260509143334 57 72 0.0 0.0 0.00 0.00 0.00 57 1025.1
20260509143134 57 72 0.0 0.0 0.00 0.00 0.00 57 1025.1
20260509142935 57 72 0.0 0.0 0.00 0.00 0.00 57 1025.1
20260509142734 57 72 0.0 0.0 0.00 0.00 0.00 56 1025.1
20260509142531 57 72 0.0 0.0 0.00 0.00 0.00 56 1025.1
20260509142331 58 72 0.0 0.0 0.00 0.00 0.00 56 1025.1
20260509142130 58 72 0.0 0.0 0.00 0.00 0.00 56 1025.2
20260509141929 58 72 0.0 0.0 0.00 0.00 0.00 56 1025.1
20260509141729 58 72 0.0 0.0 0.00 0.00 0.00 56 1025.1
20260509141529 58 72 0.0 0.0 0.00 0.00 0.00 56 1025.0
20260509141329 58 72 0.0 1.0 0.00 0.00 0.00 56 1025.0
20260509141128 58 72 0.0 1.0 0.00 0.00 0.00 55 1025.0
20260509140927 58 72 0.0 1.0 0.00 0.00 0.00 55 1025.0
20260509140726 58 72 0.0 1.0 0.00 0.00 0.00 55 1025.0
20260509140527 58 72 0.0 1.0 0.00 0.00 0.00 55 1025.0
20260509140326 58 72 0.0 1.0 0.00 0.00 0.00 54 1024.9
20260509140127 59 72 0.0 0.0 0.00 0.00 0.00 54 1024.9
20260509135922 59 72 0.0 0.0 0.00 0.00 0.00 54 1025.0
20260509135722 59 72 0.0 1.0 0.00 0.00 0.00 54 1024.9
20260509135521 59 72 0.0 1.0 0.00 0.00 0.00 54 1024.9
20260509135321 59 72 0.0 2.0 0.00 0.00 0.00 54 1024.9
20260509135120 59 72 0.0 2.0 0.00 0.00 0.00 54 1024.8
20260509134920 59 72 0.0 2.0 0.00 0.00 0.00 54 1024.8
20260509134719 59 72 1.0 2.0 0.00 0.00 0.00 54 1024.9
20260509134519 59 72 1.0 2.0 0.00 0.00 0.00 54 1024.9
20260509134318 59 72 0.0 1.0 0.00 0.00 0.00 54 1024.9
20260509134118 59 72 0.0 2.0 0.00 0.00 0.00 53 1024.8
20260509133917 59 72 1.0 2.0 0.00 0.00 0.00 53 1024.9
20260509133717 59 72 1.0 2.0 0.00 0.00 0.00 53 1024.9
20260509133517 59 72 1.0 2.0 0.00 0.00 0.00 53 1024.9
20260509133316 59 72 1.0 2.0 0.00 0.00 0.00 53 1024.8
20260509133117 59 72 1.0 2.0 0.00 0.00 0.00 53 1024.9
20260509132915 59 72 1.0 2.0 0.00 0.00 0.00 53 1024.8
20260509132715 59 72 2.0 2.0 0.00 0.00 0.00 53 1024.8
20260509132511 59 72 2.0 2.0 0.00 0.00 0.00 53 1024.8
20260509132309 59 70 1.0 3.0 0.00 0.00 0.00 53 1024.9
20260509132108 59 70 1.0 3.0 0.00 0.00 0.00 53 1024.9
20260509131907 59 72 1.0 3.0 0.00 0.00 0.00 54 1024.9
20260509131704 59 72 1.0 3.0 0.00 0.00 0.00 53 1024.9
20260509131505 59 72 2.0 3.0 0.00 0.00 0.00 53 1024.8
20260509131304 59 75 1.0 2.0 0.00 0.00 0.00 53 1024.9
20260509131104 59 73 2.0 2.0 0.00 0.00 0.00 53 1024.8
20260509130904 59 69 1.0 2.0 0.00 0.00 0.00 53 1024.8
20260509130704 59 69 1.0 2.0 0.00 0.00 0.00 54 1024.7
20260509130504 59 68 1.0 2.0 0.00 0.00 0.00 53 1024.7
20260509130303 59 68 1.0 2.0 0.00 0.00 0.00 53 1024.8
20260509125902 59 68 1.0 2.0 0.00 0.00 0.00 53 1024.8
20260509125702 59 68 1.0 2.0 0.00 0.00 0.00 52 1024.8
20260509125503 59 68 0.0 2.0 0.00 0.00 0.00 52 1024.7
20260509125301 60 70 0.0 2.0 0.00 0.00 0.00 52 1024.7
20260509125102 60 70 0.0 2.0 0.00 0.00 0.00 52 1024.6
20260509124902 60 70 0.0 2.0 0.00 0.00 0.00 52 1024.7
20260509124702 60 70 1.0 2.0 0.00 0.00 0.00 52 1024.6
20260509124504 60 70 1.0 2.0 0.00 0.00 0.00 52 1024.6
20260509124303 60 70 0.0 2.0 0.00 0.00 0.00 52 1024.6
20260509124102 60 70 1.0 2.0 0.00 0.00 0.00 52 1024.6
20260509123902 60 70 1.0 2.0 0.00 0.00 0.00 52 1024.6
20260509123703 60 70 0.0 2.0 0.00 0.00 0.00 52 1024.6
20260509123503 60 70 1.0 2.0 0.00 0.00 0.00 51 1024.5
20260509123302 60 70 1.0 2.0 0.00 0.00 0.00 51 1024.5
20260509123102 60 70 1.0 2.0 0.00 0.00 0.00 51 1024.4
20260509122902 60 70 1.0 2.0 0.00 0.00 0.00 51 1024.5
20260509122702 60 70 0.0 2.0 0.00 0.00 0.00 51 1024.5
20260509122502 60 69 0.0 0.0 0.00 0.00 0.00 51 1024.5
20260509122305 60 69 0.0 0.0 0.00 0.00 0.00 51 1024.5
20260509122102 60 69 0.0 0.0 0.00 0.00 0.00 51 1024.6
20260509121902 61 69 0.0 0.0 0.00 0.00 0.00 51 1024.5
20260509121703 61 69 0.0 0.0 0.00 0.00 0.00 51 1024.5
20260509121503 61 69 0.0 0.0 0.00 0.00 0.00 51 1024.4
20260509121302 61 69 0.0 0.0 0.00 0.00 0.00 51 1024.5
20260509121102 61 69 0.0 0.0 0.00 0.00 0.00 50 1024.5
20260509120901 61 69 0.0 0.0 0.00 0.00 0.00 50 1024.4
20260509120700 61 69 0.0 1.0 0.00 0.00 0.00 50 1024.5
20260509120500 61 69 0.0 2.0 0.00 0.00 0.00 50 1024.4
20260509120257 61 69 0.0 2.0 0.00 0.00 0.00 50 1024.4
20260509120055 61 69 0.0 2.0 0.00 0.00 0.00 50 1024.4
20260509115850 61 69 0.0 2.0 0.00 0.00 0.00 50 1024.4
20260509115650 62 69 1.0 2.0 0.00 0.00 0.00 50 1024.4
20260509115450 62 69 0.0 2.0 0.00 0.00 0.00 49 1024.3
20260509115251 62 69 0.0 2.0 0.00 0.00 0.00 49 1024.3
20260509115050 62 69 0.0 2.0 0.00 0.00 0.00 49 1024.4
20260509114850 62 69 1.0 2.0 0.00 0.00 0.00 49 1024.3
20260509114648 62 66 1.0 2.0 0.00 0.00 0.00 49 1024.3
20260509114447 62 66 1.0 2.0 0.00 0.00 0.00 49 1024.3
20260509114247 62 66 1.0 2.0 0.00 0.00 0.00 49 1024.3
20260509114046 62 65 1.0 2.0 0.00 0.00 0.00 49 1024.3
20260509113845 62 65 1.0 2.0 0.00 0.00 0.00 49 1024.3
20260509113645 62 65 0.0 2.0 0.00 0.00 0.00 49 1024.2
20260509113444 62 65 1.0 2.0 0.00 0.00 0.00 48 1024.2
20260509113244 63 65 1.0 2.0 0.00 0.00 0.00 48 1024.3
20260509113044 63 65 0.0 2.0 0.00 0.00 0.00 48 1024.2
20260509112843 63 65 0.0 2.0 0.00 0.00 0.00 48 1024.2
20260509112643 63 65 1.0 2.0 0.00 0.00 0.00 48 1024.3
20260509112437 63 63 1.0 4.0 0.00 0.00 0.00 48 1024.2
20260509112236 63 63 1.0 4.0 0.00 0.00 0.00 48 1024.2
20260509112036 63 65 1.0 4.0 0.00 0.00 0.00 48 1024.2
20260509111835 63 63 1.0 4.0 0.00 0.00 0.00 48 1024.2
20260509111634 63 63 1.0 4.0 0.00 0.00 0.00 48 1024.2
20260509111435 63 65 1.0 2.0 0.00 0.00 0.00 48 1024.2
20260509111235 63 65 1.0 2.0 0.00 0.00 0.00 48 1024.2
20260509111033 63 65 1.0 2.0 0.00 0.00 0.00 48 1024.3
20260509110833 63 65 0.0 2.0 0.00 0.00 0.00 48 1024.2
20260509110633 63 65 1.0 2.0 0.00 0.00 0.00 48 1024.2
20260509110433 63 63 0.0 2.0 0.00 0.00 0.00 48 1024.2
20260509110233 63 63 1.0 2.0 0.00 0.00 0.00 48 1024.1
20260509110034 63 63 1.0 2.0 0.00 0.00 0.00 48 1024.2
20260509105832 63 63 0.0 1.0 0.00 0.00 0.00 48 1024.1
20260509105633 63 63 0.0 1.0 0.00 0.00 0.00 48 1024.1
20260509105434 64 63 0.0 1.0 0.00 0.00 0.00 47 1024.1
20260509105233 64 63 0.0 1.0 0.00 0.00 0.00 47 1024.1
20260509105032 64 63 0.0 2.0 0.00 0.00 0.00 47 1024.2
20260509104832 64 63 0.0 2.0 0.00 0.00 0.00 47 1024.2
20260509104632 64 63 0.0 2.0 0.00 0.00 0.00 47 1024.1
20260509104432 64 63 0.0 2.0 0.00 0.00 0.00 47 1024.2
20260509104232 64 63 0.0 2.0 0.00 0.00 0.00 47 1024.1
20260509104032 64 63 0.0 1.0 0.00 0.00 0.00 46 1024.1
20260509103833 64 63 0.0 1.0 0.00 0.00 0.00 46 1024.2
20260509103614 64 63 0.0 1.0 0.00 0.00 0.00 46 1024.0
20260509103413 65 63 0.0 1.0 0.00 0.00 0.00 46 1024.1
20260509103214 65 63 0.0 1.0 0.00 0.00 0.00 46 1024.2
20260509103013 65 63 0.0 1.0 0.00 0.00 0.00 45 1024.1
20260509102813 65 63 0.0 0.0 0.00 0.00 0.00 45 1024.1
20260509102612 65 63 0.0 0.0 0.00 0.00 0.00 45 1024.2
20260509102412 65 63 0.0 0.0 0.00 0.00 0.00 45 1024.1
20260509102211 65 63 0.0 0.0 0.00 0.00 0.00 45 1024.1
20260509102011 65 63 0.0 0.0 0.00 0.00 0.00 45 1024.1
20260509101811 65 63 0.0 1.0 0.00 0.00 0.00 44 1024.1
20260509101607 66 63 0.0 1.0 0.00 0.00 0.00 44 1024.1
20260509101407 66 63 0.0 2.0 0.00 0.00 0.00 44 1024.1
20260509101206 66 63 0.0 2.0 0.00 0.00 0.00 44 1024.0
20260509101006 66 63 0.0 2.0 0.00 0.00 0.00 44 1024.1
20260509100807 66 63 0.0 2.0 0.00 0.00 0.00 44 1024.0
20260509100605 66 63 0.0 2.0 0.00 0.00 0.00 44 1024.0
20260509100404 67 62 0.0 1.0 0.00 0.00 0.00 44 1024.0
20260509100204 67 62 0.0 1.0 0.00 0.00 0.00 43 1023.9
20260509100005 67 62 0.0 1.0 0.00 0.00 0.00 43 1023.9
20260509095805 67 62 0.0 1.0 0.00 0.00 0.00 43 1023.9
20260509095604 67 62 0.0 1.0 0.00 0.00 0.00 43 1024.0
20260509095404 68 62 0.0 0.0 0.00 0.00 0.00 43 1023.9
20260509095203 68 63 0.0 0.0 0.00 0.00 0.00 43 1023.9
20260509095004 68 63 0.0 0.0 0.00 0.00 0.00 43 1023.9
20260509094804 68 63 0.0 0.0 0.00 0.00 0.00 42 1023.9
20260509094604 68 63 0.0 0.0 0.00 0.00 0.00 42 1024.0
20260509094405 68 63 0.0 0.0 0.00 0.00 0.00 42 1023.9
20260509094204 68 63 0.0 0.0 0.00 0.00 0.00 42 1024.0
20260509094005 69 63 0.0 0.0 0.00 0.00 0.00 42 1023.9
20260509093804 69 63 0.0 0.0 0.00 0.00 0.00 41 1023.9
20260509093604 69 63 0.0 1.0 0.00 0.00 0.00 41 1023.8
20260509093404 69 63 0.0 1.0 0.00 0.00 0.00 41 1023.9
20260509093204 69 63 0.0 1.0 0.00 0.00 0.00 40 1023.9
20260509093005 70 63 0.0 1.0 0.00 0.00 0.00 40 1023.9
20260509092804 70 63 0.0 1.0 0.00 0.00 0.00 40 1023.8
20260509092604 70 63 0.0 2.0 0.00 0.00 0.00 40 1023.9
20260509092402 70 63 0.0 2.0 0.00 0.00 0.00 40 1023.8
20260509092200 70 63 0.0 2.0 0.00 0.00 0.00 40 1023.8
20260509092001 71 63 0.0 2.0 0.00 0.00 0.00 39 1023.8
20260509091800 71 63 0.0 2.0 0.00 0.00 0.00 39 1023.8
20260509091600 71 63 0.0 2.0 0.00 0.00 0.00 39 1023.7
20260509091359 71 59 0.0 1.0 0.00 0.00 0.00 38 1023.8
20260509091159 71 59 0.0 2.0 0.00 0.00 0.00 38 1023.7
20260509090958 71 59 0.0 2.0 0.00 0.00 0.00 38 1023.7
20260509090759 72 59 0.0 2.0 0.00 0.00 0.00 37 1023.7
20260509090557 72 59 0.0 2.0 0.00 0.00 0.00 37 1023.7
20260509090357 72 59 0.0 2.0 0.00 0.00 0.00 37 1023.6
20260509090156 72 59 0.0 1.0 0.00 0.00 0.00 37 1023.7
20260509085957 72 59 0.0 1.0 0.00 0.00 0.00 37 1023.7
20260509085756 72 59 0.0 1.0 0.00 0.00 0.00 37 1023.6
20260509085556 73 59 0.0 1.0 0.00 0.00 0.00 37 1023.7
20260509085352 73 59 0.0 1.0 0.00 0.00 0.00 37 1023.7
20260509085151 73 59 0.0 1.0 0.00 0.00 0.00 37 1023.7
20260509084951 73 59 0.0 1.0 0.00 0.00 0.00 37 1023.8
20260509084751 73 59 0.0 1.0 0.00 0.00 0.00 36 1023.7
20260509084550 73 59 0.0 1.0 0.00 0.00 0.00 36 1023.8
20260509084350 73 59 0.0 3.0 0.00 0.00 0.00 36 1023.7
20260509084150 73 59 0.0 3.0 0.00 0.00 0.00 35 1023.7
20260509083949 73 58 0.0 4.0 0.00 0.00 0.00 35 1023.6
20260509083749 73 58 0.0 4.0 0.00 0.00 0.00 35 1023.6
20260509083549 73 56 0.0 4.0 0.00 0.00 0.00 34 1023.7
20260509083347 73 56 1.0 4.0 0.00 0.00 0.00 34 1023.6
20260509083146 74 56 2.0 4.0 0.00 0.00 0.00 34 1023.6
20260509082945 74 58 2.0 4.0 0.00 0.00 0.00 33 1023.6
20260509082745 74 96 2.0 4.0 0.00 0.00 0.00 35 1023.7
20260509082545 74 82 2.0 3.0 0.00 0.00 0.00 34 1023.7
20260509082345 74 75 1.0 2.0 0.00 0.00 0.00 35 1023.6
20260509082145 74 75 0.0 2.0 0.00 0.00 0.00 35 1023.6
20260509081945 74 75 1.0 3.0 0.00 0.00 0.00 34 1023.6
20260509081745 74 75 1.0 4.0 0.00 0.00 0.00 34 1023.7
20260509081545 75 76 1.0 4.0 0.00 0.00 0.00 34 1023.6
20260509081346 75 76 1.0 4.0 0.00 0.00 0.00 34 1023.6
20260509081145 75 77 1.0 4.0 0.00 0.00 0.00 34 1023.6
20260509080945 75 61 1.0 4.0 0.00 0.00 0.00 33 1023.6
20260509080745 75 51 2.0 4.0 0.00 0.00 0.00 33 1023.6
20260509080547 75 49 1.0 4.0 0.00 0.00 0.00 33 1023.6
20260509080344 75 61 1.0 4.0 0.00 0.00 0.00 33 1023.6
20260509080145 75 58 2.0 4.0 0.00 0.00 0.00 34 1023.6
20260509075945 76 59 2.0 4.0 0.00 0.00 0.00 34 1023.6
20260509075746 76 70 1.0 3.0 0.00 0.00 0.00 35 1023.5
20260509075544 76 70 1.0 3.0 0.00 0.00 0.00 34 1023.6
20260509075341 76 69 0.0 3.0 0.00 0.00 0.00 34 1023.6
20260509075142 76 69 1.0 3.0 0.00 0.00 0.00 34 1023.6
20260509074941 76 66 1.0 3.0 0.00 0.00 0.00 34 1023.6
20260509074741 76 66 1.0 6.0 0.00 0.00 0.00 33 1023.5
20260509074540 76 66 1.0 6.0 0.00 0.00 0.00 33 1023.6
20260509074340 76 68 1.0 6.0 0.00 0.00 0.00 33 1023.6
20260509074140 77 70 2.0 6.0 0.00 0.00 0.00 33 1023.6
20260509073939 77 70 2.0 6.0 0.00 0.00 0.00 33 1023.6
20260509073738 77 62 2.0 6.0 0.00 0.00 0.00 33 1023.6
20260509073539 77 99 1.0 6.0 0.00 0.00 0.00 33 1023.5
20260509073334 77 179 1.0 6.0 0.00 0.00 0.00 33 1023.5
20260509073135 77 45 1.0 6.0 0.00 0.00 0.00 32 1023.4
20260509072934 77 44 3.0 6.0 0.00 0.00 0.00 33 1023.5
20260509072733 78 13 3.0 5.0 0.00 0.00 0.00 33 1023.4
20260509072533 78 44 2.0 5.0 0.00 0.00 0.00 34 1023.4
20260509072332 78 68 0.0 5.0 0.00 0.00 0.00 34 1023.3
20260509072132 77 68 1.0 5.0 0.00 0.00 0.00 35 1023.4
20260509071932 77 68 2.0 5.0 0.00 0.00 0.00 34 1023.4
20260509071730 78 73 2.0 5.0 0.00 0.00 0.00 35 1023.3
20260509071531 77 52 1.0 5.0 0.00 0.00 0.00 35 1023.3
20260509071331 77 53 0.0 5.0 0.00 0.00 0.00 35 1023.3
20260509071131 77 53 1.0 5.0 0.00 0.00 0.00 35 1023.3
20260509070932 77 53 2.0 6.0 0.00 0.00 0.00 34 1023.3
20260509070731 77 53 3.0 7.0 0.00 0.00 0.00 34 1023.3
20260509070530 77 89 2.0 7.0 0.00 0.00 0.00 33 1023.2
20260509070332 78 61 2.0 7.0 0.00 0.00 0.00 34 1023.2
20260509070131 78 77 2.0 7.0 0.00 0.00 0.00 33 1023.2
20260509065931 78 44 3.0 7.0 0.00 0.00 0.00 33 1023.1
20260509065731 78 76 3.0 5.0 0.00 0.00 0.00 33 1023.1
20260509065531 78 51 4.0 5.0 0.00 0.00 0.00 33 1023.2
20260509065331 78 51 3.0 5.0 0.00 0.00 0.00 33 1023.1
20260509065131 78 0 2.0 4.0 0.00 0.00 0.00 33 1023.1
20260509064931 78 113 2.0 4.0 0.00 0.00 0.00 33 1023.1
20260509064731 78 66 2.0 4.0 0.00 0.00 0.00 34 1023.1
20260509064531 78 63 2.0 5.0 0.00 0.00 0.00 34 1023.1
20260509064331 78 118 2.0 7.0 0.00 0.00 0.00 34 1023.1
20260509064131 78 101 2.0 7.0 0.00 0.00 0.00 34 1023.1
20260509063931 77 44 1.0 7.0 0.00 0.00 0.00 35 1023.1
20260509063731 77 34 3.0 7.0 0.00 0.00 0.00 35 1023.1
20260509063531 77 45 3.0 7.0 0.00 0.00 0.00 35 1023.0
20260509063331 77 58 1.0 7.0 0.00 0.00 0.00 34 1023.0
20260509063131 77 58 3.0 7.0 0.00 0.00 0.00 34 1023.0
20260509062931 77 10 3.0 7.0 0.00 0.00 0.00 34 1023.0
20260509062731 77 130 3.0 6.0 0.00 0.00 0.00 35 1023.0
20260509062528 77 48 2.0 5.0 0.00 0.00 0.00 35 1023.0
20260509062329 77 48 2.0 5.0 0.00 0.00 0.00 35 1023.0
20260509062128 77 46 3.0 9.0 0.00 0.00 0.00 36 1023.0
20260509061925 77 10 2.0 9.0 0.00 0.00 0.00 36 1023.1
20260509061723 77 73 2.0 9.0 0.00 0.00 0.00 35 1023.1
20260509061524 77 39 2.0 9.0 0.00 0.00 0.00 35 1023.1
20260509061323 77 59 4.0 9.0 0.00 0.00 0.00 36 1023.2
20260509061120 77 108 1.0 6.0 0.00 0.00 0.00 37 1023.1
20260509060919 77 56 1.0 6.0 0.00 0.00 0.00 36 1023.2
20260509060719 77 350 2.0 6.0 0.00 0.00 0.00 35 1023.1
20260509060518 77 55 3.0 6.0 0.00 0.00 0.00 35 1023.1
20260509060318 77 58 3.0 6.0 0.00 0.00 0.00 36 1023.1
20260509060117 77 138 2.0 5.0 0.00 0.00 0.00 36 1023.1
20260509055917 77 77 1.0 6.0 0.00 0.00 0.00 37 1023.1
20260509055717 77 77 2.0 6.0 0.00 0.00 0.00 37 1023.1
20260509055516 77 11 2.0 6.0 0.00 0.00 0.00 36 1023.1
20260509055315 77 31 2.0 6.0 0.00 0.00 0.00 37 1023.1
20260509055115 77 101 3.0 6.0 0.00 0.00 0.00 37 1023.2
20260509054915 77 58 2.0 6.0 0.00 0.00 0.00 37 1023.2
20260509054715 77 39 2.0 7.0 0.00 0.00 0.00 37 1023.2
20260509054514 77 83 2.0 7.0 0.00 0.00 0.00 37 1023.3
20260509054314 77 83 2.0 7.0 0.00 0.00 0.00 37 1023.2
20260509054113 77 70 3.0 7.0 0.00 0.00 0.00 37 1023.2
20260509053913 77 68 3.0 7.0 0.00 0.00 0.00 37 1023.3
20260509053713 77 82 1.0 6.0 0.00 0.00 0.00 38 1023.3
20260509053512 77 94 2.0 6.0 0.00 0.00 0.00 38 1023.4
20260509053308 77 53 3.0 6.0 0.00 0.00 0.00 38 1023.4
20260509053108 77 68 3.0 6.0 0.00 0.00 0.00 38 1023.4
20260509052907 77 58 2.0 5.0 0.00 0.00 0.00 38 1023.5
20260509052707 77 56 2.0 5.0 0.00 0.00 0.00 38 1023.5
20260509052507 77 55 2.0 5.0 0.00 0.00 0.00 38 1023.5
20260509052307 77 63 2.0 5.0 0.00 0.00 0.00 39 1023.6
20260509052106 77 63 3.0 7.0 0.00 0.00 0.00 39 1023.7
20260509051906 76 73 3.0 7.0 0.00 0.00 0.00 39 1023.6
20260509051705 76 59 1.0 7.0 0.00 0.00 0.00 39 1023.6
20260509051502 76 56 1.0 7.0 0.00 0.00 0.00 39 1023.7
20260509051302 76 53 3.0 7.0 0.00 0.00 0.00 39 1023.6
20260509051102 76 68 2.0 7.0 0.00 0.00 0.00 39 1023.6
20260509050902 76 115 2.0 7.0 0.00 0.00 0.00 39 1023.6
20260509050702 76 75 2.0 7.0 0.00 0.00 0.00 39 1023.7
20260509050503 76 92 2.0 9.0 0.00 0.00 0.00 39 1023.7
20260509050303 76 94 4.0 9.0 0.00 0.00 0.00 39 1023.8
20260509045904 76 63 3.0 9.0 0.00 0.00 0.00 39 1023.8
20260509045704 76 56 4.0 9.0 0.00 0.00 0.00 39 1023.9
20260509045505 76 89 3.0 9.0 0.00 0.00 0.00 39 1023.9
20260509045306 76 103 3.0 9.0 0.00 0.00 0.00 39 1023.9
20260509045104 76 106 1.0 7.0 0.00 0.00 0.00 40 1024.0
20260509044905 76 87 2.0 7.0 0.00 0.00 0.00 40 1024.0
20260509044704 76 72 2.0 5.0 0.00 0.00 0.00 41 1024.1
20260509044504 75 69 2.0 7.0 0.00 0.00 0.00 41 1024.1
20260509044304 75 70 2.0 7.0 0.00 0.00 0.00 41 1024.1
20260509044104 75 75 3.0 7.0 0.00 0.00 0.00 40 1024.1
20260509043904 75 70 3.0 7.0 0.00 0.00 0.00 40 1024.2
20260509043704 75 93 3.0 7.0 0.00 0.00 0.00 41 1024.2
20260509043504 75 58 3.0 6.0 0.00 0.00 0.00 41 1024.3
20260509043304 75 73 3.0 6.0 0.00 0.00 0.00 41 1024.4
20260509043103 75 8 4.0 9.0 0.00 0.00 0.00 41 1024.4
20260509042904 75 58 3.0 9.0 0.00 0.00 0.00 41 1024.5
20260509042704 75 58 4.0 9.0 0.00 0.00 0.00 41 1024.5
20260509042504 74 53 2.0 9.0 0.00 0.00 0.00 42 1024.5
20260509042306 74 38 4.0 9.0 0.00 0.00 0.00 41 1024.6
20260509042103 74 66 3.0 7.0 0.00 0.00 0.00 41 1024.7
20260509041905 74 46 2.0 7.0 0.00 0.00 0.00 42 1024.6
20260509041704 74 44 2.0 7.0 0.00 0.00 0.00 42 1024.7
20260509041504 74 69 2.0 7.0 0.00 0.00 0.00 42 1024.8
20260509041304 74 77 3.0 7.0 0.00 0.00 0.00 42 1024.8
20260509041104 73 72 3.0 9.0 0.00 0.00 0.00 43 1024.8
20260509040903 73 111 2.0 9.0 0.00 0.00 0.00 42 1024.9
20260509040704 73 70 3.0 9.0 0.00 0.00 0.00 42 1024.9
20260509040504 73 34 3.0 9.0 0.00 0.00 0.00 42 1024.9
20260509040304 73 56 4.0 9.0 0.00 0.00 0.00 42 1025.0
20260509040104 73 51 4.0 7.0 0.00 0.00 0.00 42 1025.1
20260509035904 73 65 4.0 7.0 0.00 0.00 0.00 42 1025.1
20260509035705 73 96 4.0 7.0 0.00 0.00 0.00 42 1025.2
20260509035504 73 13 4.0 7.0 0.00 0.00 0.00 43 1025.2
20260509035306 73 21 4.0 7.0 0.00 0.00 0.00 43 1025.3
20260509035104 73 65 3.0 7.0 0.00 0.00 0.00 43 1025.4
20260509034903 73 49 2.0 9.0 0.00 0.00 0.00 43 1025.4
20260509034704 73 49 3.0 11.0 0.00 0.00 0.00 43 1025.5
20260509034505 73 51 3.0 11.0 0.00 0.00 0.00 43 1025.5
20260509034304 73 27 4.0 11.0 0.00 0.00 0.00 43 1025.5
20260509034104 73 6 4.0 11.0 0.00 0.00 0.00 42 1025.5
20260509033901 73 82 5.0 11.0 0.00 0.00 0.00 42 1025.6
20260509033700 73 28 4.0 9.0 0.00 0.00 0.00 42 1025.6
20260509033501 73 93 4.0 9.0 0.00 0.00 0.00 43 1025.6
20260509033300 73 68 3.0 9.0 0.00 0.00 0.00 43 1025.7
20260509033056 73 69 2.0 9.0 0.00 0.00 0.00 44 1025.8
20260509032857 72 4 4.0 9.0 0.00 0.00 0.00 43 1025.7
20260509032656 72 48 3.0 7.0 0.00 0.00 0.00 44 1025.8
20260509032452 72 72 3.0 7.0 0.00 0.00 0.00 44 1025.8
20260509032251 72 37 4.0 7.0 0.00 0.00 0.00 44 1025.9
20260509032051 72 45 3.0 7.0 0.00 0.00 0.00 45 1026.0
20260509031851 72 73 4.0 10.0 0.00 0.00 0.00 43 1025.9
20260509031651 72 75 4.0 10.0 0.00 0.00 0.00 43 1026.0
20260509031450 72 39 4.0 11.0 0.00 0.00 0.00 44 1026.1
20260509031249 72 48 3.0 11.0 0.00 0.00 0.00 44 1026.1
20260509031049 72 1 4.0 11.0 0.00 0.00 0.00 44 1026.2
20260509030850 72 42 4.0 11.0 0.00 0.00 0.00 44 1026.1
20260509030650 72 35 5.0 11.0 0.00 0.00 0.00 44 1026.2
20260509030447 72 32 4.0 9.0 0.00 0.00 0.00 45 1026.2
20260509030247 72 32 4.0 9.0 0.00 0.00 0.00 45 1026.3
20260509030046 71 27 4.0 9.0 0.00 0.00 0.00 46 1026.5
20260509025839 71 27 4.0 9.0 0.00 0.00 0.00 46 1026.5
20260509025637 71 65 4.0 10.0 0.00 0.00 0.00 46 1026.5
20260509025436 71 7 4.0 10.0 0.00 0.00 0.00 46 1026.5
20260509025236 71 68 3.0 10.0 0.00 0.00 0.00 45 1026.6
20260509025036 71 61 4.0 10.0 0.00 0.00 0.00 45 1026.6
20260509024836 70 45 4.0 10.0 0.00 0.00 0.00 46 1026.6
20260509024636 70 59 4.0 9.0 0.00 0.00 0.00 45 1026.6
20260509024436 70 72 3.0 9.0 0.00 0.00 0.00 46 1026.6
20260509024236 70 28 4.0 9.0 0.00 0.00 0.00 46 1026.7
20260509024035 70 69 4.0 9.0 0.00 0.00 0.00 46 1026.6
20260509023836 70 82 5.0 9.0 0.00 0.00 0.00 46 1026.5
20260509023636 70 76 4.0 6.0 0.00 0.00 0.00 47 1026.6
20260509023437 69 79 3.0 9.0 0.00 0.00 0.00 48 1026.6
20260509023235 69 84 4.0 9.0 0.00 0.00 0.00 48 1026.6
20260509023035 69 59 3.0 9.0 0.00 0.00 0.00 48 1026.6
20260509022835 69 69 4.0 9.0 0.00 0.00 0.00 48 1026.6
20260509022636 69 77 4.0 11.0 0.00 0.00 0.00 48 1026.7
20260509022435 69 70 5.0 11.0 0.00 0.00 0.00 48 1026.7
20260509022236 69 61 5.0 11.0 0.00 0.00 0.00 48 1026.7
20260509022035 68 62 5.0 11.0 0.00 0.00 0.00 48 1026.8
20260509021835 68 34 4.0 12.0 0.00 0.00 0.00 49 1026.8
20260509021635 68 38 4.0 12.0 0.00 0.00 0.00 49 1026.9
20260509021435 68 13 4.0 12.0 0.00 0.00 0.00 49 1026.9
20260509021235 68 55 4.0 12.0 0.00 0.00 0.00 49 1027.0
20260509021035 68 28 5.0 12.0 0.00 0.00 0.00 49 1026.9
20260509020835 68 39 4.0 10.0 0.00 0.00 0.00 49 1027.0
20260509020635 68 11 4.0 10.0 0.00 0.00 0.00 49 1027.0
20260509020435 68 58 4.0 10.0 0.00 0.00 0.00 50 1027.0
20260509020235 68 39 5.0 10.0 0.00 0.00 0.00 49 1027.0
20260509020033 68 82 4.0 9.0 0.00 0.00 0.00 50 1027.1
20260509015830 67 14 4.0 9.0 0.00 0.00 0.00 50 1027.0
20260509015632 67 38 4.0 9.0 0.00 0.00 0.00 51 1027.0
20260509015432 67 46 5.0 11.0 0.00 0.00 0.00 51 1026.9
20260509015233 67 354 3.0 11.0 0.00 0.00 0.00 51 1027.0
20260509015033 67 15 4.0 11.0 0.00 0.00 0.00 51 1027.0
20260509014833 67 106 5.0 11.0 0.00 0.00 0.00 51 1027.0
20260509014633 67 49 6.0 11.0 0.00 0.00 0.00 51 1027.0
20260509014432 66 77 4.0 10.0 0.00 0.00 0.00 52 1027.1
20260509014232 66 51 3.0 10.0 0.00 0.00 0.00 53 1027.0
20260509014033 66 56 3.0 10.0 0.00 0.00 0.00 53 1027.1
20260509013833 66 37 4.0 10.0 0.00 0.00 0.00 52 1027.1
20260509013633 66 55 5.0 10.0 0.00 0.00 0.00 52 1027.1
20260509013433 66 62 5.0 10.0 0.00 0.00 0.00 53 1027.1
20260509013232 65 61 4.0 10.0 0.00 0.00 0.00 53 1027.1
20260509013030 65 75 4.0 10.0 0.00 0.00 0.00 53 1027.2
20260509012830 65 41 4.0 10.0 0.00 0.00 0.00 54 1027.2
20260509012630 65 55 4.0 10.0 0.00 0.00 0.00 54 1027.2
20260509012426 65 58 4.0 12.0 0.00 0.00 0.00 54 1027.2